Regional Weather Roundup
Issued by NWS Midland/Odessa, TX

Skip options and go directly to product.
Home | Oldest Version | Previous Version | Current Version | All | Text Only | Save Text | Print | Product List | Glossary On

Skip product version selection by date and time.   
533
ASUS44 KMAF 280301
RWRMAF
MIDLAND AREA WEATHER ROUNDUP
NATIONAL WEATHER SERVICE MIDLAND TX
1000 PM CDT WED JUL 27 2016

...IN SOUTHWEST TEXAS AND SOUTHEAST NEW MEXICO...

CITY           SKY/WX    TMP DP  RH WIND       PRES   REMARKS
ALPINE         CLEAR     77  57  49 E5        30.15R
ANDREWS        FAIR      82  63  53 E5        30.02R
ARTESIA        CLOUDY    88  59  37 E13       30.03R
BIG SPRING     CLEAR     84  58  41 CALM      30.00R
CARLSBAD       CLOUDY    86  58  38 E9        30.00R
DRYDEN           N/A     83  69  62 E12       29.96R
FORT STOCKTON  CLEAR     86  60  41 SE14      29.99R
GUAD PASS      CLEAR     79  51  37 E20       30.17R
HOBBS          CLOUDY    82  57  42 NE7       30.06R
MARFA          CLEAR     75  55  49 NE8       30.13R
MIDLAND AIRPK  PTCLDY    85  59  41 SE5       30.00R
MIDLAND INTL   PTCLDY    85  61  44 SE9       29.98R
ODESSA         CLEAR     86  63  45 SE12G24   30.00R
PECOS          CLEAR     88  55  32 SE8       29.96R
PRESIDIO       FAIR      90  58  34 NE10      29.95R
SEMINOLE       CLEAR     82  61  49 N6        30.04R
SNYDER           N/A     85  64  49 E5        29.99R
WINK           CLEAR     88  59  37 SE10      29.95R
$$
...OTHER STATIONS IN TEXAS...

CITY           SKY/WX    TMP DP  RH WIND       PRES   REMARKS
ABILENE        CLEAR     80  69  69 SE10      29.99R
AMARILLO       CLEAR     75  54  47 NE22G37   30.18R
AUSTIN         CLOUDY    77  73  87 S3        29.95R
BROWNSVILLE    PTCLDY    83  76  79 SE8       29.93R
CORPUS CHRISTI PTCLDY    84  77  79 SE12      29.91S
DALLAS FTW     CLOUDY    87  70  56 S13       29.93R
DEL RIO        PTCLDY    82  70  66 SE7       29.92R
EL PASO        PTCLDY    83  61  47 S6        30.02R
HOUSTON INT    MOCLDY    82  75  79 S3        29.95R
LUBBOCK        PTCLDY    78  62  57 N8        30.05R
SAN ANGELO     CLOUDY    83  67  58 S10       29.96R
SAN ANTONIO    CLOUDY    76  73  91 N3        29.96R
WACO           CLOUDY    81  72  74 S7        29.94R
WICHITA FALLS  NOT AVBL
$$
...OTHER LOCATIONS IN NEW MEXICO...

CITY           SKY/WX    TMP DP  RH WIND       PRES   REMARKS
ALAMAGORDO     CLEAR     81  59  47 S6        30.06R
ALBUQUERQUE    CLOUDY    83  43  24 E8        30.12R
CANNON AFB     PTCLDY    74  62  68 E2        30.12R
CLOVIS         MOCLDY    72  59  64 E7        30.13R
HOLLOMAN AFB   CLEAR     87  56  34 S6        30.04R
ROSWELL        CLEAR     81  58  45 S7        30.04R
RUIDOSO          N/A     70  50  49 SE8       30.31R
SANTA FE       CLEAR     76  46  34 S8        30.22R
TRUTH OR CONSE PTCLDY    87  52  29 SE10      30.09R
TUCUMCARI      CLEAR     79  59  50 CALM      30.08R
$$

USA.gov is the U.S. government's official web portal to all federal, state and local government web resources and services.